Weather History for Sylvania, GA

Change the Weather History Date:

Monday, February 25, 2013

  Actual Average (KSAV) Record (KSAV)
Temperature  
Mean Temperature 48 °F 55 °F  
Max Temperature 52 °F 67 °F 82 °F (1985)
Min Temperature 43 °F 44 °F 19 °F (1967)
Degree Days  
Heating Degree Days 18 10  
Month to date heating degree days 313  
Since 1 July heating degree days 1487  
Cooling Degree Days 0 0  
Month to date cooling degree days 0  
Year to date cooling degree days 3  
Moisture  
Dew Point 48 °F    
Average Humidity 99    
Maximum Humidity 100    
Minimum Humidity 94    
Precipitation  
Precipitation 0.00 in 0.11 in 2.66 in (1919)
Month to date precipitation 2.50  
Year to date precipitation 6.19  
Sea Level Pressure  
Sea Level Pressure 30.00 in    
Wind  
Wind Speed 4 mph (East)    
Max Wind Speed 20 mph    
Max Gust Speed 28 mph    
Visibility 8 miles    
Events Rain    
T = Trace of Precipitation, MM = Missing Value Source: NWS Daily Summary

Daily Weather History Graph

Daily Weather History Graph

Search for Another Location

Airport:

Trip Planner

Search our weather history database for the weather conditions in past years. The results will help you decide how hot, cold, wet, or windy it might be!

Date:

Astronomy

Feb. 25, 2013 Rise Set
Actual Time 6:58 AM EST 6:20 PM EST
Civil Twilight 6:33 AM EST 6:45 PM EST
Nautical Twilight 6:05 AM EST 7:14 PM EST
Astronomical Twilight 5:36 AM EST 7:42 PM EST
Moon 6:29 PM EST (2/25) 6:30 AM EST (2/25)
Length of Visible Light 12h 11m
Length of Day
11h 22m
Full, 100% of the Moon is Illuminated
Feb 25
Full
Feb 25
Full
Mar 4
Last Quarter
Mar 11
New
Mar 19
First Quarter

Hourly Weather History & Observations

Time (EST) Temp. Windchill Dew Point Humidity Pressure Visibility Wind Dir Wind Speed Gust Speed Precip Events Conditions
12:15 AM 48.4 °F - 48.4 °F 100% 29.97 in 10.0 mi Calm Calm - N/A   Clear
12:35 AM 48.2 °F - 48.0 °F 99% 29.97 in 10.0 mi Calm Calm - N/A   Clear
12:55 AM 48.2 °F - 47.8 °F 99% 29.96 in 10.0 mi Calm Calm - N/A   Clear
1:15 AM 48.2 °F - 48.2 °F 100% 29.96 in 10.0 mi Calm Calm - N/A   Clear
1:35 AM 48.0 °F - 48.0 °F 100% 29.96 in 10.0 mi Calm Calm - N/A   Clear
1:55 AM 48.2 °F - 48.2 °F 100% 29.96 in 10.0 mi Calm Calm - N/A   Clear
2:15 AM 46.8 °F - 46.8 °F 100% 29.97 in 10.0 mi Calm Calm - N/A   Clear
2:35 AM 47.8 °F - 47.8 °F 100% 29.96 in 10.0 mi Calm Calm - N/A   Clear
2:55 AM 47.7 °F - 47.7 °F 100% 29.96 in 10.0 mi Calm Calm - N/A   Clear
3:15 AM 46.6 °F - 46.6 °F 100% 29.96 in 10.0 mi Calm Calm - N/A   Clear
3:35 AM 47.3 °F - 47.3 °F 100% 29.95 in 10.0 mi Calm Calm - N/A   Clear
3:55 AM 47.8 °F - 47.8 °F 100% 29.95 in 10.0 mi Calm Calm - N/A   Clear
4:15 AM 48.2 °F - 48.2 °F 100% 29.95 in 10.0 mi Calm Calm - N/A   Scattered Clouds
4:35 AM 47.7 °F - 47.7 °F 100% 29.96 in 10.0 mi Calm Calm - N/A   Scattered Clouds
4:55 AM 48.7 °F - 48.7 °F 100% 29.96 in 10.0 mi Calm Calm - N/A   Scattered Clouds
5:15 AM 50.2 °F - 50.2 °F 100% 29.97 in 10.0 mi Calm Calm - N/A   Mostly Cloudy
5:35 AM 50.2 °F - 50.2 °F 100% 29.99 in 10.0 mi Calm Calm - N/A   Overcast
5:55 AM 51.3 °F - 51.3 °F 100% 29.99 in 10.0 mi Calm Calm - N/A   Mostly Cloudy
6:15 AM 51.8 °F - 51.8 °F 100% 30.02 in 10.0 mi Calm Calm - N/A   Overcast
6:35 AM 52.0 °F - 52.0 °F 100% 30.02 in 10.0 mi Calm Calm - N/A   Overcast
6:55 AM 51.4 °F - 51.4 °F 100% 30.00 in 10.0 mi Calm Calm - N/A   Mostly Cloudy
7:15 AM 51.8 °F - 51.8 °F 100% 30.00 in 10.0 mi Calm Calm - N/A   Mostly Cloudy
7:35 AM 52.3 °F - 52.3 °F 100% 30.01 in 10.0 mi Calm Calm - N/A   Scattered Clouds
7:55 AM 52.3 °F - 52.3 °F 100% 30.01 in 10.0 mi East 4.6 mph - N/A   Mostly Cloudy
8:15 AM 52.2 °F - 52.2 °F 100% 30.02 in 10.0 mi ENE 6.9 mph - N/A Rain Light Rain
8:35 AM 52.3 °F - 52.2 °F 99% 30.04 in 10.0 mi ENE 4.6 mph - N/A   Overcast
8:55 AM 52.7 °F - 52.2 °F 98% 30.05 in 10.0 mi NNE 4.6 mph - N/A   Overcast
9:15 AM 52.0 °F - 51.6 °F 99% 30.04 in 10.0 mi ENE 8.1 mph - N/A   Overcast
9:35 AM 52.3 °F - 51.3 °F 96% 30.05 in 10.0 mi East 6.9 mph - N/A   Overcast
9:55 AM 52.3 °F - 50.5 °F 94% 30.06 in 10.0 mi East 5.8 mph - N/A Rain Light Rain
10:15 AM 52.2 °F - 50.4 °F 94% 30.05 in 10.0 mi East 5.8 mph - N/A Rain Light Rain
10:35 AM 51.8 °F - 50.5 °F 95% 30.06 in 10.0 mi ENE 3.5 mph - N/A Rain Light Rain
10:55 AM 51.3 °F - 50.7 °F 98% 30.07 in 7.0 mi ENE 3.5 mph - N/A Rain Rain
11:15 AM 50.9 °F - 50.4 °F 98% 30.07 in 5.0 mi ENE 6.9 mph - N/A Rain Rain
11:35 AM 50.5 °F - 50.0 °F 98% 30.06 in 7.0 mi ENE 10.4 mph - N/A Rain Light Rain
11:55 AM 50.0 °F - 49.5 °F 98% 30.04 in 7.0 mi East 10.4 mph - N/A Rain Light Rain
12:15 PM 49.5 °F - 49.1 °F 99% 30.06 in 7.0 mi East 9.2 mph - N/A Rain Light Rain
12:35 PM 49.3 °F - 48.7 °F 98% 30.04 in 7.0 mi East 10.4 mph - N/A Rain Rain
12:55 PM 48.9 °F - 48.6 °F 99% 30.04 in 5.0 mi East 6.9 mph - N/A Rain Rain
1:15 PM 48.9 °F - 48.6 °F 99% 30.03 in 7.0 mi East 8.1 mph - N/A Rain Light Rain
1:35 PM 48.7 °F - 48.7 °F 100% 30.04 in 7.0 mi East 8.1 mph - N/A Rain Light Rain
1:55 PM 49.1 °F - 49.1 °F 100% 30.03 in 5.0 mi East 5.8 mph - N/A Rain Light Rain
2:15 PM 49.3 °F - 49.3 °F 100% 30.02 in 5.0 mi East 6.9 mph - N/A Rain Light Rain
2:35 PM 49.3 °F - 49.3 °F 100% 30.01 in 5.0 mi East 8.1 mph - N/A Rain Light Rain
2:55 PM 49.5 °F - 49.5 °F 100% 30.02 in 7.0 mi East 6.9 mph - N/A Rain Light Rain
3:15 PM 49.5 °F - 49.5 °F 100% 30.02 in 5.0 mi East 5.8 mph - N/A Rain Light Rain
3:35 PM 49.3 °F - 49.3 °F 100% 30.02 in 5.0 mi ESE 5.8 mph - N/A Rain Rain
3:55 PM 49.5 °F - 49.5 °F 100% 30.00 in 5.0 mi ESE 6.9 mph - N/A Rain Rain
4:15 PM 49.5 °F - 49.5 °F 100% 29.97 in 4.0 mi SE 9.2 mph - N/A Rain Rain
4:35 PM 49.6 °F - 49.6 °F 100% 29.97 in 5.0 mi ESE 9.2 mph - N/A Rain Rain
4:55 PM 50.0 °F - 50.0 °F 100% 29.98 in 5.0 mi ESE 5.8 mph - N/A Rain Rain
5:15 PM 50.2 °F - 50.2 °F 100% 29.97 in 7.0 mi ESE 6.9 mph - N/A Rain Rain
5:35 PM 50.2 °F - 50.2 °F 100% 29.91 in 7.0 mi East 16.1 mph - N/A Rain Rain
5:55 PM 50.2 °F - 50.2 °F 100% 29.96 in 10.0 mi North 9.2 mph 16.1 mph N/A Rain Light Rain
6:15 PM 49.6 °F - 49.6 °F 100% 29.96 in 10.0 mi NNE 15.0 mph - N/A   Overcast
6:35 PM 47.7 °F - 47.7 °F 100% 29.97 in 7.0 mi NNE 15.0 mph 25.3 mph N/A   Overcast
6:55 PM 45.7 °F 39.8 °F 45.7 °F 100% 30.01 in 4.0 mi NE 12.7 mph 21.9 mph N/A   Overcast
7:15 PM 43.5 °F 35.2 °F 43.5 °F 100% 30.01 in 7.0 mi ENE 19.6 mph 26.5 mph N/A   Overcast
7:35 PM 43.0 °F 35.7 °F 42.8 °F 99% 29.99 in 7.0 mi East 15.0 mph 27.6 mph N/A   Overcast
7:55 PM 43.2 °F 35.9 °F 42.8 °F 99% 29.99 in 7.0 mi East 15.0 mph 27.6 mph N/A   Overcast
8:15 PM 43.3 °F 36.5 °F 42.8 °F 98% 29.99 in 7.0 mi East 13.8 mph 23.0 mph N/A   Overcast
8:35 PM 43.7 °F 38.1 °F 42.8 °F 97% 30.00 in 7.0 mi East 10.4 mph 18.4 mph N/A   Overcast
8:55 PM 43.7 °F 37.3 °F 42.6 °F 96% 29.99 in 7.0 mi East 12.7 mph 21.9 mph N/A   Overcast
9:15 PM 43.7 °F 37.7 °F 42.8 °F 97% 29.97 in 10.0 mi East 11.5 mph - N/A   Overcast
9:35 PM 43.9 °F 38.8 °F 42.8 °F 96% 29.98 in 7.0 mi East 9.2 mph 17.3 mph N/A   Overcast
9:55 PM 44.1 °F 40.1 °F 43.0 °F 96% 29.99 in 7.0 mi East 6.9 mph - N/A   Overcast
10:15 PM 44.2 °F 38.0 °F 43.3 °F 97% 29.95 in 7.0 mi East 12.7 mph 18.4 mph N/A   Overcast
10:55 PM 44.8 °F 40.4 °F 43.9 °F 97% 29.95 in 7.0 mi East 8.1 mph - N/A   Overcast
11:35 PM 45.5 °F 41.3 °F 44.8 °F 97% 29.94 in 5.0 mi East 8.1 mph - N/A Rain Light Rain
11:55 PM 45.5 °F 42.5 °F 45.1 °F 99% 29.93 in 4.0 mi East 5.8 mph - N/A Rain Light Rain